EZY1993 LSGG-LIPZ

Flight info

Callsign EZY1993
Flight time N/A
Altitude 370000
Route SOSAL1J SOSAL N871 KORED DCT BERSU DCT RESIA DCT ADOSA/N0351F190 L612 ALBET ALBET2E
Aircraft A320/M-S/L

Departure

Time 2026-05-06 17:09
Airport Geneva International Airport (LSGG)

Arrival

Time N/A
Airport Venice Marco Polo Airport (LIPZ)
Time Latitude Longitude Altitude Speed Heading
2026-05-06 16:43 46.22920 6.10405 1393 ft 0 kts 150°
2026-05-06 16:59 46.22932 6.10395 1406 ft 4 kts 148°
2026-05-06 16:59 46.22952 6.10372 1401 ft 4 kts 120°
2026-05-06 16:59 46.22955 6.10350 1402 ft 1 kts 45°
2026-05-06 17:00 46.22955 6.10349 1393 ft 0 kts 45°
2026-05-06 17:03 46.22983 6.10390 1395 ft 13 kts 45°
2026-05-06 17:03 46.23043 6.10474 1399 ft 11 kts 33°
2026-05-06 17:03 46.23100 6.10442 1395 ft 10 kts 317°
2026-05-06 17:04 46.23164 6.10355 1396 ft 14 kts 323°
2026-05-06 17:04 46.23236 6.10403 1393 ft 12 kts 44°
2026-05-06 17:04 46.23290 6.10481 1394 ft 10 kts 47°
2026-05-06 17:04 46.23348 6.10569 1396 ft 17 kts 46°
2026-05-06 17:05 46.23457 6.10717 1387 ft 25 kts 46°
2026-05-06 17:05 46.23580 6.10895 1390 ft 24 kts 45°
2026-05-06 17:05 46.23702 6.11074 1388 ft 26 kts 45°
2026-05-06 17:05 46.23840 6.11278 1374 ft 28 kts 45°
2026-05-06 17:06 46.23981 6.11485 1372 ft 27 kts 46°
2026-05-06 17:06 46.24117 6.11685 1367 ft 30 kts 45°
2026-05-06 17:06 46.24272 6.11913 1362 ft 32 kts 45°
2026-05-06 17:06 46.24425 6.12138 1370 ft 30 kts 45°
2026-05-06 17:07 46.24571 6.12354 1371 ft 31 kts 45°
2026-05-06 17:07 46.24730 6.12586 1362 ft 33 kts 46°
2026-05-06 17:07 46.24874 6.12704 1365 ft 20 kts 18°
2026-05-06 17:07 46.24998 6.12725 1370 ft 17 kts 330°
2026-05-06 17:08 46.24977 6.12608 1372 ft 15 kts 218°
2026-05-06 17:08 46.24927 6.12542 1372 ft 0 kts 225°
2026-05-06 17:08 46.24910 6.12516 1371 ft 20 kts 226°
2026-05-06 17:08 46.24628 6.12102 1372 ft 92 kts 225°
2026-05-06 17:09 46.24040 6.11236 1378 ft 146 kts 226°
2026-05-06 17:09 46.23281 6.10105 1801 ft 153 kts 225°
2026-05-06 17:09 46.22511 6.09018 2371 ft 157 kts 223°
2026-05-06 17:09 46.21698 6.07873 2791 ft 172 kts 227°
2026-05-06 17:10 46.21175 6.06268 3171 ft 188 kts 269°
2026-05-06 17:10 46.21660 6.04501 3695 ft 200 kts 311°
2026-05-06 17:10 46.22941 6.03644 4298 ft 210 kts 357°
2026-05-06 17:10 46.24370 6.04101 4916 ft 213 kts 18°
2026-05-06 17:11 46.25290 6.04618 5317 ft 215 kts 21°
2026-05-06 17:11 46.26658 6.05507 5930 ft 218 kts 30°
2026-05-06 17:11 46.27859 6.06951 6302 ft 236 kts 44°
2026-05-06 17:11 46.29089 6.08684 6588 ft 259 kts 43°
2026-05-06 17:12 46.30474 6.10600 6951 ft 282 kts 43°
2026-05-06 17:12 46.31927 6.12582 7619 ft 291 kts 43°
2026-05-06 17:12 46.33418 6.14600 8449 ft 295 kts 42°
2026-05-06 17:12 46.34928 6.16638 9281 ft 299 kts 42°
2026-05-06 17:13 46.36462 6.18697 10072 ft 302 kts 41°
2026-05-06 17:13 46.38073 6.20818 10408 ft 324 kts 41°
2026-05-06 17:13 46.39807 6.23067 10730 ft 342 kts 41°
2026-05-06 17:13 46.41613 6.25405 11328 ft 351 kts 41°
2026-05-06 17:14 46.43433 6.27797 11983 ft 357 kts 41°
2026-05-06 17:14 46.45270 6.30246 12748 ft 359 kts 42°
2026-05-06 17:14 46.47114 6.32728 13467 ft 364 kts 42°
2026-05-06 17:14 46.48977 6.35245 14123 ft 368 kts 43°
2026-05-06 17:15 46.50856 6.37780 14791 ft 370 kts 42°
2026-05-06 17:15 46.52757 6.40337 15417 ft 373 kts 43°
2026-05-06 17:15 46.54474 6.43180 16096 ft 376 kts 54°
2026-05-06 17:15 46.55750 6.46504 16673 ft 380 kts 68°
2026-05-06 17:16 46.56488 6.50178 17375 ft 378 kts 82°
2026-05-06 17:16 46.56667 6.53979 18040 ft 378 kts 94°
2026-05-06 17:16 46.56568 6.57812 18627 ft 380 kts 94°
2026-05-06 17:16 46.56471 6.61671 19189 ft 383 kts 94°
2026-05-06 17:17 46.56377 6.65543 19761 ft 385 kts 94°
2026-05-06 17:17 46.56280 6.69495 20321 ft 388 kts 94°
2026-05-06 17:17 46.56182 6.73417 20869 ft 391 kts 94°
2026-05-06 17:17 46.56086 6.77285 21400 ft 393 kts 94°
2026-05-06 17:18 46.56003 6.81275 21939 ft 397 kts 91°
2026-05-06 17:18 46.56278 6.85288 22479 ft 402 kts 80°
2026-05-06 17:18 46.57074 6.89205 22961 ft 408 kts 70°
2026-05-06 17:18 46.58391 6.92898 23441 ft 415 kts 59°
2026-05-06 17:19 46.60154 6.96252 23846 ft 420 kts 52°
2026-05-06 17:19 46.62004 6.99559 24219 ft 423 kts 53°
2026-05-06 17:19 46.63865 7.02906 24610 ft 427 kts 53°
2026-05-06 17:19 46.65738 7.06289 24969 ft 430 kts 53°
2026-05-06 17:20 46.67623 7.09705 25322 ft 434 kts 53°
2026-05-06 17:20 46.69393 7.12913 25653 ft 437 kts 53°
2026-05-06 17:20 46.71302 7.16372 26000 ft 440 kts 53°
2026-05-06 17:20 46.73154 7.19729 26325 ft 443 kts 53°
2026-05-06 17:21 46.75062 7.23199 26435 ft 445 kts 53°
2026-05-06 17:21 46.76996 7.26719 26869 ft 445 kts 53°
2026-05-06 17:21 46.78942 7.30256 27249 ft 447 kts 53°
2026-05-06 17:21 46.80890 7.33799 27606 ft 449 kts 53°
2026-05-06 17:22 46.82853 7.37382 27874 ft 453 kts 54°
2026-05-06 17:22 46.84822 7.40985 28161 ft 456 kts 54°
2026-05-06 17:22 46.86347 7.43775 28405 ft 459 kts 54°
2026-05-06 17:22 46.88462 7.47654 28735 ft 461 kts 54°
2026-05-06 17:23 46.90463 7.51334 29061 ft 464 kts 54°
2026-05-06 17:23 46.92479 7.55045 29360 ft 466 kts 54°
2026-05-06 17:23 46.94485 7.58739 29692 ft 467 kts 55°
2026-05-06 17:23 46.96530 7.62511 30030 ft 468 kts 55°
2026-05-06 17:24 46.98555 7.66251 30264 ft 470 kts 55°
2026-05-06 17:24 47.00594 7.70026 30486 ft 472 kts 55°
2026-05-06 17:24 47.02639 7.73809 30708 ft 474 kts 55°
2026-05-06 17:24 47.04601 7.77442 30916 ft 476 kts 55°
2026-05-06 17:25 47.06656 7.81261 31134 ft 478 kts 55°
2026-05-06 17:25 47.08724 7.85180 31372 ft 478 kts 59°
2026-05-06 17:25 47.10253 7.89274 31634 ft 471 kts 72°
2026-05-06 17:25 47.11095 7.93522 31840 ft 464 kts 85°
2026-05-06 17:26 47.11314 7.98164 31915 ft 446 kts 98°
2026-05-06 17:26 47.10861 8.02559 31900 ft 428 kts 111°
2026-05-06 17:26 47.09929 8.06282 31897 ft 419 kts 119°
2026-05-06 17:27 47.07568 8.14023 31899 ft 419 kts 119°
2026-05-06 17:27 47.05260 8.21612 31893 ft 419 kts 119°
2026-05-06 17:28 47.02883 8.29452 31896 ft 421 kts 120°
2026-05-06 17:28 47.00579 8.37043 31918 ft 422 kts 120°
2026-05-06 17:29 46.98343 8.44525 31913 ft 421 kts 120°
2026-05-06 17:29 46.95926 8.52358 31905 ft 421 kts 120°
2026-05-06 17:30 46.93499 8.60148 31909 ft 421 kts 120°
2026-05-06 17:30 46.91149 8.67742 31887 ft 423 kts 121°
2026-05-06 17:31 46.88741 8.75542 31901 ft 423 kts 121°